Location: *
(49.7115°N, 15.0136°E)
Time: 17:16:54
(UTC+00:00)

Cosmos 1263 - Pass Details

Date: 27 February 2020
Orbit: 382 x 1343 km, 82.9° (Epoch: 31 March)

Event Time Altitude Azimuth Distance (km) Brightness Sun altitude
Rises 18:12:15 0° 351° (N) 3,026 8.8 -16.0°
Reaches altitude 10° 18:14:47 10° 353° (N) 1,955 7.8 -16.4°
Maximum altitude 18:18:58 78° 79° (ENE) 521 4.5 -17.0°
Enters shadow 18:21:31 17° 166° (SSE) 1,233 6.4 -17.4°
